Terug naar catalogus

COSMOS 1851

ActiefMilitairHEO
NORAD 18103·PAYLOAD·🇷🇺 Russia

Gelanceerd Jun 12, 1987 vanaf Plesetsk Cosmodrome

Loading…

Volgende Passages (komende 24 uur)

TLE

VersSource: Space-Track

Epoch: Sep 14, 2026, 14:32 UTC

1 18103U 87050A   26257.60595448  .00000018  00000-0  00000-0 0  9995
2 18103  70.9889 184.4725 4699946  36.7828 100.9803  2.00530317287580

Volg COSMOS 1851 in realtime met AllMySat

Download on the App Store